Simultaneous Nadir Overpasses (SNOs) Predictions

Prediction of SNOs between GOES-17 and FY3D Satellite Orbit:

Table of predicted SNOs for the next 14.0 days since TLE Epoch: 6/1/2024
Index Date Time (GOES-17) GOES-17 Lat,Lon FY3D Lat,Lon Distance(km) Time Diff (sec)
1 06/02/2024 09:32:36 -0.00,-104.72 0.13,-105.18 53.68 80
2 06/03/2024 09:11:23 -0.01,-104.72 -0.92,-100.69 459.47 80
3 06/04/2024 21:33:38 0.01,-104.72 -0.27,-106.03 149.49 80
4 06/05/2024 21:17:44 0.01,-104.72 0.71,-101.53 363.56 80
5 06/07/2024 09:39:49 -0.02,-104.72 0.47,-106.83 240.88 80
6 06/08/2024 09:18:37 -0.02,-104.72 -0.58,-102.34 272.05 80
7 06/09/2024 21:40:50 0.02,-104.72 -0.65,-107.68 336.84 80
8 06/10/2024 21:24:57 0.02,-104.73 0.35,-103.17 176.70 80
9 06/12/2024 09:44:22 -0.01,-104.74 0.84,-108.48 426.78 80
10 06/13/2024 09:25:49 -0.01,-104.74 -0.16,-103.98 86.93 80
